Year,Month,Day,Hour,Minute,Value (Times are PST for temperature in C)
2018,08,06,00,00,18.80
2018,08,06,00,01,18.80
2018,08,06,00,02,18.80
2018,08,06,00,03,18.80
2018,08,06,00,04,18.80
2018,08,06,00,05,18.80
2018,08,06,00,06,18.70
2018,08,06,00,07,18.70
2018,08,06,00,08,18.70
2018,08,06,00,09,18.70
2018,08,06,00,10,18.70
2018,08,06,00,11,18.70
2018,08,06,00,12,18.70
2018,08,06,00,13,18.70
2018,08,06,00,14,18.70
2018,08,06,00,15,18.70
2018,08,06,00,16,18.70
2018,08,06,00,17,18.60
2018,08,06,00,18,18.60
2018,08,06,00,19,18.60
2018,08,06,00,20,18.60
2018,08,06,00,21,18.60
2018,08,06,00,22,18.60
2018,08,06,00,23,18.60
2018,08,06,00,24,18.60
2018,08,06,00,25,18.60
2018,08,06,00,26,18.60
2018,08,06,00,27,18.60
2018,08,06,00,28,18.50
2018,08,06,00,29,18.50
2018,08,06,00,30,18.50
2018,08,06,00,31,18.50
2018,08,06,00,32,18.50
2018,08,06,00,33,18.50
2018,08,06,00,34,18.50
2018,08,06,00,35,18.50
2018,08,06,00,36,18.50
2018,08,06,00,37,18.40
2018,08,06,00,38,18.40
2018,08,06,00,39,18.40
2018,08,06,00,40,18.40
2018,08,06,00,41,18.40
2018,08,06,00,42,18.40
2018,08,06,00,43,18.40
2018,08,06,00,44,18.40
2018,08,06,00,45,18.40
2018,08,06,00,46,18.40
2018,08,06,00,47,18.40
2018,08,06,00,48,18.40
2018,08,06,00,49,18.40
2018,08,06,00,50,18.40
2018,08,06,00,51,18.40
2018,08,06,00,52,18.40
2018,08,06,00,53,18.40
2018,08,06,00,54,18.40
2018,08,06,00,55,18.40
2018,08,06,00,56,18.40
2018,08,06,00,57,18.40
2018,08,06,00,58,18.40
2018,08,06,00,59,18.40
2018,08,06,01,00,18.40
2018,08,06,01,01,18.50
2018,08,06,01,02,18.50
2018,08,06,01,03,18.50
2018,08,06,01,04,18.50
2018,08,06,01,05,18.50
2018,08,06,01,06,18.50
2018,08,06,01,07,18.50
2018,08,06,01,08,18.50
2018,08,06,01,09,18.50
2018,08,06,01,10,18.50
2018,08,06,01,11,18.50
2018,08,06,01,12,18.50
2018,08,06,01,13,18.50
2018,08,06,01,14,18.50
2018,08,06,01,15,18.50
2018,08,06,01,16,18.50
2018,08,06,01,17,18.50
2018,08,06,01,18,18.40
2018,08,06,01,19,18.40
2018,08,06,01,20,18.40
2018,08,06,01,21,18.40
2018,08,06,01,22,18.40
2018,08,06,01,23,18.40
2018,08,06,01,24,18.40
2018,08,06,01,25,18.40
2018,08,06,01,26,18.40
2018,08,06,01,27,18.40
2018,08,06,01,28,18.40
2018,08,06,01,29,18.40
2018,08,06,01,30,18.40
2018,08,06,01,31,18.30
2018,08,06,01,32,18.30
2018,08,06,01,33,18.30
2018,08,06,01,34,18.30
2018,08,06,01,35,18.30
2018,08,06,01,36,18.30
2018,08,06,01,37,18.30
2018,08,06,01,38,18.30
2018,08,06,01,39,18.30
2018,08,06,01,40,18.30
2018,08,06,01,41,18.30
2018,08,06,01,42,18.30
2018,08,06,01,43,18.30
2018,08,06,01,44,18.20
2018,08,06,01,45,18.20
2018,08,06,01,46,18.20
2018,08,06,01,47,18.20
2018,08,06,01,48,18.20
2018,08,06,01,49,18.20
2018,08,06,01,50,18.20
2018,08,06,01,51,18.20
2018,08,06,01,52,18.20
2018,08,06,01,53,18.20
2018,08,06,01,54,18.20
2018,08,06,01,55,18.10
2018,08,06,01,56,18.10
2018,08,06,01,57,18.10
2018,08,06,01,58,18.10
2018,08,06,01,59,18.10
2018,08,06,02,00,18.10
2018,08,06,02,01,18.00
2018,08,06,02,02,18.00
2018,08,06,02,03,18.00
2018,08,06,02,04,17.90
2018,08,06,02,05,17.90
2018,08,06,02,06,17.90
2018,08,06,02,07,17.90
2018,08,06,02,08,17.90
2018,08,06,02,09,17.80
2018,08,06,02,10,17.80
2018,08,06,02,11,17.80
2018,08,06,02,12,17.80
2018,08,06,02,13,17.80
2018,08,06,02,14,17.80
2018,08,06,02,15,17.80
2018,08,06,02,16,17.70
2018,08,06,02,17,17.70
2018,08,06,02,18,17.70
2018,08,06,02,19,17.70
2018,08,06,02,20,17.70
2018,08,06,02,21,17.60
2018,08,06,02,22,17.60
2018,08,06,02,23,17.60
2018,08,06,02,24,17.60
2018,08,06,02,25,17.60
2018,08,06,02,26,17.60
2018,08,06,02,27,17.50
2018,08,06,02,28,17.50
2018,08,06,02,29,17.50
2018,08,06,02,30,17.40
2018,08,06,02,31,17.40
2018,08,06,02,32,17.40
2018,08,06,02,33,17.40
2018,08,06,02,34,17.30
2018,08,06,02,35,17.30
2018,08,06,02,36,17.30
2018,08,06,02,37,17.30
2018,08,06,02,38,17.20
2018,08,06,02,39,17.20
2018,08,06,02,40,17.20
2018,08,06,02,41,17.20
2018,08,06,02,42,17.10
2018,08,06,02,43,17.10
2018,08,06,02,44,17.10
2018,08,06,02,45,17.00
2018,08,06,02,46,17.00
2018,08,06,02,47,17.00
2018,08,06,02,48,17.00
2018,08,06,02,49,16.90
2018,08,06,02,50,16.90
2018,08,06,02,51,16.90
2018,08,06,02,52,16.90
2018,08,06,02,53,16.90
2018,08,06,02,54,16.80
2018,08,06,02,55,16.80
2018,08,06,02,56,16.80
2018,08,06,02,57,16.80
2018,08,06,02,58,16.80
2018,08,06,02,59,16.80
2018,08,06,03,00,16.80
2018,08,06,03,01,16.70
2018,08,06,03,02,16.70
2018,08,06,03,03,16.70
2018,08,06,03,04,16.70
2018,08,06,03,05,16.70
2018,08,06,03,06,16.70
2018,08,06,03,07,16.60
2018,08,06,03,08,16.60
2018,08,06,03,09,16.60
2018,08,06,03,10,16.60
2018,08,06,03,11,16.60
2018,08,06,03,12,16.60
2018,08,06,03,13,16.50
2018,08,06,03,14,16.50
2018,08,06,03,15,16.50
2018,08,06,03,16,16.50
2018,08,06,03,17,16.50
2018,08,06,03,18,16.40
2018,08,06,03,19,16.40
2018,08,06,03,20,16.40
2018,08,06,03,21,16.40
2018,08,06,03,22,16.40
2018,08,06,03,23,16.30
2018,08,06,03,24,16.30
2018,08,06,03,25,16.30
2018,08,06,03,26,16.30
2018,08,06,03,27,16.30
2018,08,06,03,28,16.30
2018,08,06,03,29,16.30
2018,08,06,03,30,16.30
2018,08,06,03,31,16.30
2018,08,06,03,32,16.30
2018,08,06,03,33,16.20
2018,08,06,03,34,16.20
2018,08,06,03,35,16.20
2018,08,06,03,36,16.20
2018,08,06,03,37,16.20
2018,08,06,03,38,16.20
2018,08,06,03,39,16.20
2018,08,06,03,40,16.20
2018,08,06,03,41,16.20
2018,08,06,03,42,16.20
2018,08,06,03,43,16.10
2018,08,06,03,44,16.10
2018,08,06,03,45,16.10
2018,08,06,03,46,16.10
2018,08,06,03,47,16.10
2018,08,06,03,48,16.10
2018,08,06,03,49,16.10
2018,08,06,03,50,16.10
2018,08,06,03,51,16.10
2018,08,06,03,52,16.10
2018,08,06,03,53,16.10
2018,08,06,03,54,16.10
2018,08,06,03,55,16.10
2018,08,06,03,56,16.10
2018,08,06,03,57,16.00
2018,08,06,03,58,16.00
2018,08,06,03,59,16.00
2018,08,06,04,00,16.00
2018,08,06,04,01,16.00
2018,08,06,04,02,16.00
2018,08,06,04,03,16.00
2018,08,06,04,04,16.00
2018,08,06,04,05,16.00
2018,08,06,04,06,16.00
2018,08,06,04,07,16.00
2018,08,06,04,08,15.90
2018,08,06,04,09,15.90
2018,08,06,04,10,15.90
2018,08,06,04,11,15.90
2018,08,06,04,12,15.90
2018,08,06,04,13,15.90
2018,08,06,04,14,15.90
2018,08,06,04,15,15.90
2018,08,06,04,16,15.90
2018,08,06,04,17,15.90
2018,08,06,04,18,15.90
2018,08,06,04,19,15.90
2018,08,06,04,20,15.90
2018,08,06,04,21,15.90
2018,08,06,04,22,15.90
2018,08,06,04,23,15.90
2018,08,06,04,24,15.90
2018,08,06,04,25,15.90
2018,08,06,04,26,15.90
2018,08,06,04,27,15.90
2018,08,06,04,28,15.80
2018,08,06,04,29,15.80
2018,08,06,04,30,15.80
2018,08,06,04,31,15.80
2018,08,06,04,32,15.80
2018,08,06,04,33,15.80
2018,08,06,04,34,15.80
2018,08,06,04,35,15.80
2018,08,06,04,36,15.80
2018,08,06,04,37,15.80
2018,08,06,04,38,15.80
2018,08,06,04,39,15.80
2018,08,06,04,40,15.80
2018,08,06,04,41,15.80
2018,08,06,04,42,15.80
2018,08,06,04,43,15.80
2018,08,06,04,44,15.80
2018,08,06,04,45,15.80
2018,08,06,04,46,15.80
2018,08,06,04,47,15.80
2018,08,06,04,48,15.80
2018,08,06,04,49,15.80
2018,08,06,04,50,15.80
2018,08,06,04,51,15.80
2018,08,06,04,52,15.80
2018,08,06,04,53,15.80
2018,08,06,04,54,15.80
2018,08,06,04,55,15.80
2018,08,06,04,56,15.80
2018,08,06,04,57,15.80
2018,08,06,04,58,15.80
2018,08,06,04,59,15.70
2018,08,06,05,00,15.70
2018,08,06,05,01,15.70
2018,08,06,05,02,15.70
2018,08,06,05,03,15.70
2018,08,06,05,04,15.70
2018,08,06,05,05,15.70
2018,08,06,05,06,15.70
2018,08,06,05,07,15.70
2018,08,06,05,08,15.70
2018,08,06,05,09,15.70
2018,08,06,05,10,15.60
2018,08,06,05,11,15.60
2018,08,06,05,12,15.60
2018,08,06,05,13,15.60
2018,08,06,05,14,15.60
2018,08,06,05,15,15.60
2018,08,06,05,16,15.60
2018,08,06,05,17,15.60
2018,08,06,05,18,15.60
2018,08,06,05,19,15.60
2018,08,06,05,20,15.60
2018,08,06,05,21,15.60
2018,08,06,05,22,15.60
2018,08,06,05,23,15.60
2018,08,06,05,24,15.60
2018,08,06,05,25,15.60
2018,08,06,05,26,15.50
2018,08,06,05,27,15.50
2018,08,06,05,28,15.50
2018,08,06,05,29,15.50
2018,08,06,05,30,15.50
2018,08,06,05,31,15.50
2018,08,06,05,32,15.50
2018,08,06,05,33,15.50
2018,08,06,05,34,15.50
2018,08,06,05,35,15.50
2018,08,06,05,36,15.50
2018,08,06,05,37,15.50
2018,08,06,05,38,15.50
2018,08,06,05,39,15.40
2018,08,06,05,40,15.40
2018,08,06,05,41,15.40
2018,08,06,05,42,15.40
2018,08,06,05,43,15.40
2018,08,06,05,44,15.40
2018,08,06,05,45,15.40
2018,08,06,05,46,15.40
2018,08,06,05,47,15.40
2018,08,06,05,48,15.40
2018,08,06,05,49,15.40
2018,08,06,05,50,15.40
2018,08,06,05,51,15.40
2018,08,06,05,52,15.40
2018,08,06,05,53,15.40
2018,08,06,05,54,15.40
2018,08,06,05,55,15.40
2018,08,06,05,56,15.40
2018,08,06,05,57,15.40
2018,08,06,05,58,15.40
2018,08,06,05,59,15.40
2018,08,06,06,00,15.40
2018,08,06,06,01,15.40
2018,08,06,06,02,15.40
2018,08,06,06,03,15.40
2018,08,06,06,04,15.40
2018,08,06,06,05,15.40
2018,08,06,06,06,15.40
2018,08,06,06,07,15.40
2018,08,06,06,08,15.40
2018,08,06,06,09,15.40
2018,08,06,06,10,15.40
2018,08,06,06,11,15.40
2018,08,06,06,12,15.40
2018,08,06,06,13,15.40
2018,08,06,06,14,15.40
2018,08,06,06,15,15.40
2018,08,06,06,16,15.40
2018,08,06,06,17,15.40
2018,08,06,06,18,15.40
2018,08,06,06,19,15.40
2018,08,06,06,20,15.40
2018,08,06,06,21,15.40
2018,08,06,06,22,15.50
2018,08,06,06,23,15.50
2018,08,06,06,24,15.50
2018,08,06,06,25,15.50
2018,08,06,06,26,15.50
2018,08,06,06,27,15.50
2018,08,06,06,28,15.50
2018,08,06,06,29,15.50
2018,08,06,06,30,15.40
2018,08,06,06,31,15.40
2018,08,06,06,32,15.40
2018,08,06,06,33,15.40
2018,08,06,06,34,15.40
2018,08,06,06,35,15.40
2018,08,06,06,36,15.40
2018,08,06,06,37,15.40
2018,08,06,06,38,15.30
2018,08,06,06,39,15.30
2018,08,06,06,40,15.30
2018,08,06,06,41,15.30
2018,08,06,06,42,15.30
2018,08,06,06,43,15.30
2018,08,06,06,44,15.30
2018,08,06,06,45,15.30
2018,08,06,06,46,15.20
2018,08,06,06,47,15.20
2018,08,06,06,48,15.20
2018,08,06,06,49,15.20
2018,08,06,06,50,15.20
2018,08,06,06,51,15.20
2018,08,06,06,52,15.20
2018,08,06,06,53,15.30
2018,08,06,06,54,15.30
2018,08,06,06,55,15.30
2018,08,06,06,56,15.30
2018,08,06,06,57,15.30
2018,08,06,06,58,15.30
2018,08,06,06,59,15.30
2018,08,06,07,00,15.30
2018,08,06,07,01,15.30
2018,08,06,07,02,15.30
2018,08,06,07,03,15.30
2018,08,06,07,04,15.30
2018,08,06,07,05,15.30
2018,08,06,07,06,15.30
2018,08,06,07,07,15.30
2018,08,06,07,08,15.30
2018,08,06,07,09,15.30
2018,08,06,07,10,15.30
2018,08,06,07,11,15.30
2018,08,06,07,12,15.30
2018,08,06,07,13,15.30
2018,08,06,07,14,15.30
2018,08,06,07,15,15.30
2018,08,06,07,16,15.30
2018,08,06,07,17,15.30
2018,08,06,07,18,15.30
2018,08,06,07,19,15.30
2018,08,06,07,20,15.30
2018,08,06,07,21,15.30
2018,08,06,07,22,15.40
2018,08,06,07,23,15.40
2018,08,06,07,24,15.40
2018,08,06,07,25,15.40
2018,08,06,07,26,15.40
2018,08,06,07,27,15.40
2018,08,06,07,28,15.40
2018,08,06,07,29,15.40
2018,08,06,07,30,15.40
2018,08,06,07,31,15.40
2018,08,06,07,32,15.40
2018,08,06,07,33,15.40
2018,08,06,07,34,15.40
2018,08,06,07,35,15.50
2018,08,06,07,36,15.50
2018,08,06,07,37,15.50
2018,08,06,07,38,15.50
2018,08,06,07,39,15.50
2018,08,06,07,40,15.50
2018,08,06,07,41,15.50
2018,08,06,07,42,15.50
2018,08,06,07,43,15.50
2018,08,06,07,44,15.50
2018,08,06,07,45,15.60
2018,08,06,07,46,15.60
2018,08,06,07,47,15.60
2018,08,06,07,48,15.60
2018,08,06,07,49,15.60
2018,08,06,07,50,15.60
2018,08,06,07,51,15.60
2018,08,06,07,52,15.70
2018,08,06,07,53,15.70
2018,08,06,07,54,15.70
2018,08,06,07,55,15.70
2018,08,06,07,56,15.70
2018,08,06,07,57,15.70
2018,08,06,07,58,15.70
2018,08,06,07,59,15.70
2018,08,06,08,00,15.80
2018,08,06,08,01,15.80
2018,08,06,08,02,15.80
2018,08,06,08,03,15.80
2018,08,06,08,04,15.80
2018,08,06,08,05,15.80
2018,08,06,08,06,15.80
2018,08,06,08,07,15.80
2018,08,06,08,08,15.80
2018,08,06,08,09,15.80
2018,08,06,08,10,15.80
2018,08,06,08,11,15.80
2018,08,06,08,12,15.80
2018,08,06,08,13,15.80
2018,08,06,08,14,15.80
2018,08,06,08,15,15.80
2018,08,06,08,16,15.80
2018,08,06,08,17,15.80
2018,08,06,08,18,15.90
2018,08,06,08,19,15.90
2018,08,06,08,20,15.90
2018,08,06,08,21,15.90
2018,08,06,08,22,15.90
2018,08,06,08,23,16.00
2018,08,06,08,24,16.00
2018,08,06,08,25,16.00
2018,08,06,08,26,16.10
2018,08,06,08,27,16.10
2018,08,06,08,28,16.10
2018,08,06,08,29,16.10
2018,08,06,08,30,16.10
2018,08,06,08,31,16.10
2018,08,06,08,32,16.20
2018,08,06,08,33,16.20
2018,08,06,08,34,16.20
2018,08,06,08,35,16.20
2018,08,06,08,36,16.30
2018,08,06,08,37,16.30
2018,08,06,08,38,16.30
2018,08,06,08,39,16.40
2018,08,06,08,40,16.40
2018,08,06,08,41,16.40
2018,08,06,08,42,16.40
2018,08,06,08,43,16.40
2018,08,06,08,44,16.50
2018,08,06,08,45,16.50
2018,08,06,08,46,16.50
2018,08,06,08,47,16.50
2018,08,06,08,48,16.60
2018,08,06,08,49,16.60
2018,08,06,08,50,16.60
2018,08,06,08,51,16.60
2018,08,06,08,52,16.60
2018,08,06,08,53,16.60
2018,08,06,08,54,16.70
2018,08,06,08,55,16.70
2018,08,06,08,56,16.70
2018,08,06,08,57,16.70
2018,08,06,08,58,16.70
2018,08,06,08,59,16.80
2018,08,06,09,00,16.80
2018,08,06,09,01,16.80
2018,08,06,09,02,16.80
2018,08,06,09,03,16.80
2018,08,06,09,04,16.80
2018,08,06,09,05,16.90
2018,08,06,09,06,16.90
2018,08,06,09,07,17.00
2018,08,06,09,08,17.00
2018,08,06,09,09,17.10
2018,08,06,09,10,17.10
2018,08,06,09,11,17.10
2018,08,06,09,12,17.20
2018,08,06,09,13,17.30
2018,08,06,09,14,17.30
2018,08,06,09,15,17.40
2018,08,06,09,16,17.50
2018,08,06,09,17,17.50
2018,08,06,09,18,17.60
2018,08,06,09,19,17.60
2018,08,06,09,20,17.70
2018,08,06,09,21,17.70
2018,08,06,09,22,17.70
2018,08,06,09,23,17.80
2018,08,06,09,24,17.80
2018,08,06,09,25,17.80
2018,08,06,09,26,17.90
2018,08,06,09,27,17.90
2018,08,06,09,28,18.00
2018,08,06,09,29,18.00
2018,08,06,09,30,18.10
2018,08,06,09,31,18.10
2018,08,06,09,32,18.20
2018,08,06,09,33,18.20
2018,08,06,09,34,18.30
2018,08,06,09,35,18.30
2018,08,06,09,36,18.40
2018,08,06,09,37,18.40
2018,08,06,09,38,18.40
2018,08,06,09,39,18.50
2018,08,06,09,40,18.50
2018,08,06,09,41,18.60
2018,08,06,09,42,18.60
2018,08,06,09,43,18.60
2018,08,06,09,44,18.70
2018,08,06,09,45,18.70
2018,08,06,09,46,18.80
2018,08,06,09,47,18.80
2018,08,06,09,48,18.90
2018,08,06,09,49,18.90
2018,08,06,09,50,19.00
2018,08,06,09,51,19.10
2018,08,06,09,52,19.10
2018,08,06,09,53,19.10
2018,08,06,09,54,19.20
2018,08,06,09,55,19.20
2018,08,06,09,56,19.30
2018,08,06,09,57,19.30
2018,08,06,09,58,19.30
2018,08,06,09,59,19.40
2018,08,06,10,00,19.40
2018,08,06,10,01,19.50
2018,08,06,10,02,19.50
2018,08,06,10,03,19.60
2018,08,06,10,04,19.60
2018,08,06,10,05,19.70
2018,08,06,10,06,19.70
2018,08,06,10,07,19.70
2018,08,06,10,08,19.80
2018,08,06,10,09,19.80
2018,08,06,10,10,19.90
2018,08,06,10,11,19.90
2018,08,06,10,12,19.90
2018,08,06,10,13,20.00
2018,08,06,10,14,20.00
2018,08,06,10,15,20.10
2018,08,06,10,16,20.10
2018,08,06,10,17,20.10
2018,08,06,10,18,20.20
2018,08,06,10,19,20.20
2018,08,06,10,20,20.20
2018,08,06,10,21,20.30
2018,08,06,10,22,20.30
2018,08,06,10,23,20.30
2018,08,06,10,24,20.30
2018,08,06,10,25,20.30
2018,08,06,10,26,20.40
2018,08,06,10,27,20.40
2018,08,06,10,28,20.50
2018,08,06,10,29,20.50
2018,08,06,10,30,20.50
2018,08,06,10,31,20.60
2018,08,06,10,32,20.60
2018,08,06,10,33,20.70
2018,08,06,10,34,20.70
2018,08,06,10,35,20.70
2018,08,06,10,36,20.80
2018,08,06,10,37,20.80
2018,08,06,10,38,20.80
2018,08,06,10,39,20.90
2018,08,06,10,40,20.90
2018,08,06,10,41,20.90
2018,08,06,10,42,21.00
2018,08,06,10,43,21.00
2018,08,06,10,44,21.10
2018,08,06,10,45,21.10
2018,08,06,10,46,21.10
2018,08,06,10,47,21.20
2018,08,06,10,48,21.20
2018,08,06,10,49,21.20
2018,08,06,10,50,21.20
2018,08,06,10,51,21.30
2018,08,06,10,52,21.30
2018,08,06,10,53,21.30
2018,08,06,10,54,21.30
2018,08,06,10,55,21.40
2018,08,06,10,56,21.40
2018,08,06,10,57,21.40
2018,08,06,10,58,21.40
2018,08,06,10,59,21.50
2018,08,06,11,00,21.50
2018,08,06,11,01,21.60
2018,08,06,11,02,21.60
2018,08,06,11,03,21.60
2018,08,06,11,04,21.60
2018,08,06,11,05,21.70
2018,08,06,11,06,21.70
2018,08,06,11,07,21.70
2018,08,06,11,08,21.80
2018,08,06,11,09,21.80
2018,08,06,11,10,21.90
2018,08,06,11,11,21.90
2018,08,06,11,12,21.90
2018,08,06,11,13,22.00
2018,08,06,11,14,22.00
2018,08,06,11,15,22.00
2018,08,06,11,16,22.10
2018,08,06,11,17,22.10
2018,08,06,11,18,22.10
2018,08,06,11,19,22.10
2018,08,06,11,20,22.10
2018,08,06,11,21,22.20
2018,08,06,11,22,22.20
2018,08,06,11,23,22.20
2018,08,06,11,24,22.20
2018,08,06,11,25,22.20
2018,08,06,11,26,22.20
2018,08,06,11,27,22.30
2018,08,06,11,28,22.30
2018,08,06,11,29,22.30
2018,08,06,11,30,22.30
2018,08,06,11,31,22.30
2018,08,06,11,32,22.30
2018,08,06,11,33,22.30
2018,08,06,11,34,22.30
2018,08,06,11,35,22.30
2018,08,06,11,36,22.30
2018,08,06,11,37,22.30
2018,08,06,11,38,22.30
2018,08,06,11,39,22.30
2018,08,06,11,40,22.40
2018,08,06,11,41,22.40
2018,08,06,11,42,22.40
2018,08,06,11,43,22.40
2018,08,06,11,44,22.50
2018,08,06,11,45,22.50
2018,08,06,11,46,22.60
2018,08,06,11,47,22.60
2018,08,06,11,48,22.70
2018,08,06,11,49,22.70
2018,08,06,11,50,22.70
2018,08,06,11,51,22.80
2018,08,06,11,52,22.80
2018,08,06,11,53,22.80
2018,08,06,11,54,22.90
2018,08,06,11,55,22.90
2018,08,06,11,56,22.90
2018,08,06,11,57,23.00
2018,08,06,11,58,23.00
2018,08,06,11,59,23.00
2018,08,06,12,00,23.10
2018,08,06,12,01,23.10
2018,08,06,12,02,23.10
2018,08,06,12,03,23.10
2018,08,06,12,04,23.20
2018,08,06,12,05,23.20
2018,08,06,12,06,23.20
2018,08,06,12,07,23.30
2018,08,06,12,08,23.30
2018,08,06,12,09,23.30
2018,08,06,12,10,23.30
2018,08,06,12,11,23.40
2018,08,06,12,12,23.40
2018,08,06,12,13,23.50
2018,08,06,12,14,23.50
2018,08,06,12,15,23.50
2018,08,06,12,16,23.60
2018,08,06,12,17,23.60
2018,08,06,12,18,23.70
2018,08,06,12,19,23.70
2018,08,06,12,20,23.70
2018,08,06,12,21,23.80
2018,08,06,12,22,23.80
2018,08,06,12,23,23.80
2018,08,06,12,24,23.90
2018,08,06,12,25,23.90
2018,08,06,12,26,24.00
2018,08,06,12,27,24.00
2018,08,06,12,28,24.10
2018,08,06,12,29,24.10
2018,08,06,12,30,24.10
2018,08,06,12,31,24.10
2018,08,06,12,32,24.20
2018,08,06,12,33,24.20
2018,08,06,12,34,24.20
2018,08,06,12,35,24.20
2018,08,06,12,36,24.20
2018,08,06,12,37,24.20
2018,08,06,12,38,24.30
2018,08,06,12,39,24.30
2018,08,06,12,40,24.40
2018,08,06,12,41,24.40
2018,08,06,12,42,24.50
2018,08,06,12,43,24.60
2018,08,06,12,44,24.60
2018,08,06,12,45,24.70
2018,08,06,12,46,24.70
2018,08,06,12,47,24.70
2018,08,06,12,48,24.70
2018,08,06,12,49,24.70
2018,08,06,12,50,24.70
2018,08,06,12,51,24.80
2018,08,06,12,52,24.80
2018,08,06,12,53,24.80
2018,08,06,12,54,24.80
2018,08,06,12,55,24.90
2018,08,06,12,56,24.90
2018,08,06,12,57,25.00
2018,08,06,12,58,25.10
2018,08,06,12,59,25.20
2018,08,06,13,00,25.20
2018,08,06,13,01,25.30
2018,08,06,13,02,25.30
2018,08,06,13,03,25.40
2018,08,06,13,04,25.50
2018,08,06,13,05,25.50
2018,08,06,13,06,25.60
2018,08,06,13,07,25.60
2018,08,06,13,08,25.60
2018,08,06,13,09,25.60
2018,08,06,13,10,25.60
2018,08,06,13,11,25.60
2018,08,06,13,12,25.60
2018,08,06,13,13,25.60
2018,08,06,13,14,25.60
2018,08,06,13,15,25.60
2018,08,06,13,16,25.70
2018,08,06,13,17,25.70
2018,08,06,13,18,25.80
2018,08,06,13,19,25.80
2018,08,06,13,20,25.90
2018,08,06,13,21,25.90
2018,08,06,13,22,26.00
2018,08,06,13,23,26.20
2018,08,06,13,24,26.30
2018,08,06,13,25,26.50
2018,08,06,13,26,26.60
2018,08,06,13,27,26.70
2018,08,06,13,28,26.80
2018,08,06,13,29,26.90
2018,08,06,13,30,27.00
2018,08,06,13,31,27.10
2018,08,06,13,32,27.20
2018,08,06,13,33,27.30
2018,08,06,13,34,27.40
2018,08,06,13,35,27.50
2018,08,06,13,36,27.60
2018,08,06,13,37,27.70
2018,08,06,13,38,27.70
2018,08,06,13,39,27.70
2018,08,06,13,40,27.70
2018,08,06,13,41,27.70
2018,08,06,13,42,27.70
2018,08,06,13,43,27.70
2018,08,06,13,44,27.70
2018,08,06,13,45,27.70
2018,08,06,13,46,27.80
2018,08,06,13,47,27.80
2018,08,06,13,48,27.80
2018,08,06,13,49,27.80
2018,08,06,13,50,27.80
2018,08,06,13,51,27.80
2018,08,06,13,52,27.80
2018,08,06,13,53,27.80
2018,08,06,13,54,27.70
2018,08,06,13,55,27.70
2018,08,06,13,56,27.70
2018,08,06,13,57,27.70
2018,08,06,13,58,27.70
2018,08,06,13,59,27.70
2018,08,06,14,00,27.70
2018,08,06,14,01,27.70
2018,08,06,14,02,27.70
2018,08,06,14,03,27.70
2018,08,06,14,04,27.60
2018,08,06,14,05,27.60
2018,08,06,14,06,27.50
2018,08,06,14,07,27.40
2018,08,06,14,08,27.40
2018,08,06,14,09,27.40
2018,08,06,14,10,27.40
2018,08,06,14,11,27.40
2018,08,06,14,12,27.40
2018,08,06,14,13,27.40
2018,08,06,14,14,27.40
2018,08,06,14,15,27.40
2018,08,06,14,16,27.40
2018,08,06,14,17,27.40
2018,08,06,14,18,27.30
2018,08,06,14,19,27.40
2018,08,06,14,20,27.40
2018,08,06,14,21,27.40
2018,08,06,14,22,27.40
2018,08,06,14,23,27.40
2018,08,06,14,24,27.40
2018,08,06,14,25,27.40
2018,08,06,14,26,27.40
2018,08,06,14,27,27.40
2018,08,06,14,28,27.40
2018,08,06,14,29,27.40
2018,08,06,14,30,27.40
2018,08,06,14,31,27.40
2018,08,06,14,32,27.50
2018,08,06,14,33,27.60
2018,08,06,14,34,27.70
2018,08,06,14,35,27.70
2018,08,06,14,36,27.80
2018,08,06,14,37,27.90
2018,08,06,14,38,27.90
2018,08,06,14,39,27.90
2018,08,06,14,40,28.00
2018,08,06,14,41,28.00
2018,08,06,14,42,28.00
2018,08,06,14,43,28.00
2018,08,06,14,44,28.00
2018,08,06,14,45,28.00
2018,08,06,14,46,28.00
2018,08,06,14,47,28.00
2018,08,06,14,48,28.00
2018,08,06,14,49,28.10
2018,08,06,14,50,28.20
2018,08,06,14,51,28.20
2018,08,06,14,52,28.20
2018,08,06,14,53,28.30
2018,08,06,14,54,28.30
2018,08,06,14,55,28.30
2018,08,06,14,56,28.40
2018,08,06,14,57,28.40
2018,08,06,14,58,28.40
2018,08,06,14,59,28.40
2018,08,06,15,00,28.50
2018,08,06,15,01,28.50
2018,08,06,15,02,28.60
2018,08,06,15,03,28.60
2018,08,06,15,04,28.70
2018,08,06,15,05,28.70
2018,08,06,15,06,28.70
2018,08,06,15,07,28.70
2018,08,06,15,08,28.60
2018,08,06,15,09,28.60
2018,08,06,15,10,28.70
2018,08,06,15,11,28.70
2018,08,06,15,12,28.80
2018,08,06,15,13,28.80
2018,08,06,15,14,28.90
2018,08,06,15,15,29.00
2018,08,06,15,16,29.00
2018,08,06,15,17,29.10
2018,08,06,15,18,29.10
2018,08,06,15,19,29.20
2018,08,06,15,20,29.20
2018,08,06,15,21,29.30
2018,08,06,15,22,29.30
2018,08,06,15,23,29.40
2018,08,06,15,24,29.40
2018,08,06,15,25,29.40
2018,08,06,15,26,29.40
2018,08,06,15,27,29.40
2018,08,06,15,28,29.40
2018,08,06,15,29,29.30
2018,08,06,15,30,29.30
2018,08,06,15,31,29.30
2018,08,06,15,32,29.40
2018,08,06,15,33,29.40
2018,08,06,15,34,29.50
2018,08,06,15,35,29.50
2018,08,06,15,36,29.50
2018,08,06,15,37,29.50
2018,08,06,15,38,29.50
2018,08,06,15,39,29.60
2018,08,06,15,40,29.60
2018,08,06,15,41,29.60
2018,08,06,15,42,29.60
2018,08,06,15,43,29.60
2018,08,06,15,44,29.60
2018,08,06,15,45,29.60
2018,08,06,15,46,29.50
2018,08,06,15,47,29.50
2018,08,06,15,48,29.50
2018,08,06,15,49,29.50
2018,08,06,15,50,29.50
2018,08,06,15,51,29.60
2018,08,06,15,52,29.60
2018,08,06,15,53,29.60
2018,08,06,15,54,29.70
2018,08,06,15,55,29.70
2018,08,06,15,56,29.70
2018,08,06,15,57,29.70
2018,08,06,15,58,29.70
2018,08,06,15,59,29.70
2018,08,06,16,00,29.80
2018,08,06,16,01,29.80
2018,08,06,16,02,29.80
2018,08,06,16,03,29.80
2018,08,06,16,04,29.80
2018,08,06,16,05,29.80
2018,08,06,16,06,29.80
2018,08,06,16,07,29.70
2018,08,06,16,08,29.70
2018,08,06,16,09,29.70
2018,08,06,16,10,29.70
2018,08,06,16,11,29.70
2018,08,06,16,12,29.70
2018,08,06,16,13,29.70
2018,08,06,16,14,29.70
2018,08,06,16,15,29.80
2018,08,06,16,16,29.80
2018,08,06,16,17,29.90
2018,08,06,16,18,29.90
2018,08,06,16,19,30.00
2018,08,06,16,20,30.00
2018,08,06,16,21,30.10
2018,08,06,16,22,30.10
2018,08,06,16,23,30.20
2018,08,06,16,24,30.20
2018,08,06,16,25,30.20
2018,08,06,16,26,30.30
2018,08,06,16,27,30.30
2018,08,06,16,28,30.30
2018,08,06,16,29,30.30
2018,08,06,16,30,30.30
2018,08,06,16,31,30.30
2018,08,06,16,32,30.30
2018,08,06,16,33,30.20
2018,08,06,16,34,30.20
2018,08,06,16,35,30.10
2018,08,06,16,36,30.00
2018,08,06,16,37,30.00
2018,08,06,16,38,29.90
2018,08,06,16,39,29.80
2018,08,06,16,40,29.80
2018,08,06,16,41,29.70
2018,08,06,16,42,29.70
2018,08,06,16,43,29.60
2018,08,06,16,44,29.60
2018,08,06,16,45,29.50
2018,08,06,16,46,29.50
2018,08,06,16,47,29.50
2018,08,06,16,48,29.40
2018,08,06,16,49,29.40
2018,08,06,16,50,29.40
2018,08,06,16,51,29.30
2018,08,06,16,52,29.30
2018,08,06,16,53,29.30
2018,08,06,16,54,29.30
2018,08,06,16,55,29.30
2018,08,06,16,56,29.20
2018,08,06,16,57,29.20
2018,08,06,16,58,29.20
2018,08,06,16,59,29.20
2018,08,06,17,00,29.20
2018,08,06,17,01,29.20
2018,08,06,17,02,29.10
2018,08,06,17,03,29.10
2018,08,06,17,04,29.10
2018,08,06,17,05,29.10
2018,08,06,17,06,29.00
2018,08,06,17,07,29.00
2018,08,06,17,08,29.00
2018,08,06,17,09,29.00
2018,08,06,17,10,29.00
2018,08,06,17,11,28.90
2018,08,06,17,12,28.90
2018,08,06,17,13,28.90
2018,08,06,17,14,28.90
2018,08,06,17,15,28.90
2018,08,06,17,16,28.90
2018,08,06,17,17,28.90
2018,08,06,17,18,28.90
2018,08,06,17,19,28.90